TimeMST,TemperatureF,Dew PointF,Humidity,Sea Level PressureIn,VisibilityMPH,Wind Direction,Wind SpeedMPH,Gust SpeedMPH,PrecipitationIn,Events,Conditions,WindDirDegrees,DateUTC
12:51 AM,41.0,3.2,21,30.37,10.0,ENE,3.5,-,N/A,,Clear,70,2013-01-16 07:51:00
1:51 AM,39.9,5.0,23,30.38,10.0,Calm,Calm,-,N/A,,Clear,0,2013-01-16 08:51:00
2:51 AM,39.0,8.1,28,30.37,10.0,Variable,3.5,-,N/A,,Clear,0,2013-01-16 09:51:00
3:51 AM,39.0,8.1,28,30.36,10.0,Calm,Calm,-,N/A,,Clear,0,2013-01-16 10:51:00
4:51 AM,35.1,10.0,35,30.36,10.0,SW,5.8,-,N/A,,Clear,220,2013-01-16 11:51:00
5:51 AM,36.0,8.1,31,30.35,10.0,West,4.6,-,N/A,,Clear,280,2013-01-16 12:51:00
6:51 AM,36.0,8.1,31,30.37,10.0,Calm,Calm,-,N/A,,Partly Cloudy,0,2013-01-16 13:51:00
7:51 AM,37.0,8.1,30,30.37,10.0,Calm,Calm,-,N/A,,Partly Cloudy,0,2013-01-16 14:51:00
8:51 AM,39.9,10.9,31,30.38,10.0,East,3.5,-,N/A,,Partly Cloudy,100,2013-01-16 15:51:00
9:51 AM,46.9,9.0,21,30.38,10.0,Calm,Calm,-,N/A,,Partly Cloudy,0,2013-01-16 16:51:00
10:51 AM,51.1,10.0,19,30.37,10.0,Variable,3.5,-,N/A,,Partly Cloudy,0,2013-01-16 17:51:00
11:51 AM,54.0,12.0,19,30.33,10.0,SSE,6.9,-,N/A,,Partly Cloudy,160,2013-01-16 18:51:00
12:51 PM,57.0,12.0,17,30.30,10.0,South,4.6,-,N/A,,Partly Cloudy,180,2013-01-16 19:51:00
1:51 PM,55.9,12.0,18,30.27,10.0,Calm,Calm,-,N/A,,Partly Cloudy,0,2013-01-16 20:51:00
2:51 PM,57.9,12.9,17,30.23,10.0,Calm,Calm,-,N/A,,Partly Cloudy,0,2013-01-16 21:51:00
3:51 PM,60.1,12.9,16,30.22,10.0,WNW,4.6,-,N/A,,Partly Cloudy,290,2013-01-16 22:51:00
4:51 PM,60.1,14.0,16,30.22,10.0,NW,4.6,-,N/A,,Partly Cloudy,310,2013-01-16 23:51:00
5:51 PM,59.0,14.0,17,30.22,10.0,WNW,6.9,-,N/A,,Partly Cloudy,300,2013-01-17 00:51:00
6:51 PM,55.9,15.1,20,30.23,10.0,West,4.6,-,N/A,,Clear,260,2013-01-17 01:51:00
7:51 PM,52.0,16.0,24,30.25,10.0,SW,4.6,-,N/A,,Clear,220,2013-01-17 02:51:00
8:51 PM,51.1,16.0,25,30.24,10.0,West,3.5,-,N/A,,Clear,270,2013-01-17 03:51:00
9:51 PM,48.0,17.1,29,30.23,10.0,WSW,3.5,-,N/A,,Clear,240,2013-01-17 04:51:00
10:51 PM,48.0,17.1,29,30.22,10.0,Calm,Calm,-,N/A,,Clear,0,2013-01-17 05:51:00
11:51 PM,48.2,17.6,30,30.22,10.0,Calm,Calm,-,N/A,,Clear,0,2013-01-17 06:51:00